UAL2210 KMEM-KIAH

Flight info

Callsign UAL2210
Flight time 1h 16m
Altitude 32000
Route CHLDR5 ANSWA LITTR Q33 SWEUP GESNR2
Aircraft A319/M-VGDW/C

Departure

Time 2026-05-04 02:47
Airport Memphis International Airport (KMEM)

Arrival

Time 2026-05-04 04:04
Airport George Bush Intercontinental Airport (KIAH)
Time Latitude Longitude Altitude Speed Heading
2026-05-04 02:30 35.04047 -89.97902 327 ft 0 kts 316°
2026-05-04 02:37 35.04036 -89.97889 328 ft 3 kts 315°
2026-05-04 02:38 35.04022 -89.97871 325 ft 3 kts 309°
2026-05-04 02:38 35.04011 -89.97852 325 ft 3 kts 283°
2026-05-04 02:38 35.04008 -89.97840 326 ft 3 kts 210°
2026-05-04 02:38 35.04011 -89.97838 327 ft 1 kts 179°
2026-05-04 02:39 35.04013 -89.97838 327 ft 0 kts 179°
2026-05-04 02:41 35.04006 -89.97838 327 ft 3 kts 179°
2026-05-04 02:41 35.03968 -89.97837 328 ft 8 kts 179°
2026-05-04 02:42 35.03917 -89.97840 329 ft 6 kts 195°
2026-05-04 02:42 35.03888 -89.97895 328 ft 10 kts 259°
2026-05-04 02:42 35.03888 -89.98001 330 ft 15 kts 269°
2026-05-04 02:42 35.03886 -89.98146 330 ft 20 kts 269°
2026-05-04 02:43 35.03882 -89.98336 331 ft 25 kts 269°
2026-05-04 02:43 35.03889 -89.98475 331 ft 5 kts 299°
2026-05-04 02:43 35.03917 -89.98493 328 ft 9 kts 344°
2026-05-04 02:43 35.04032 -89.98494 329 ft 25 kts
2026-05-04 02:44 35.04236 -89.98498 329 ft 30 kts 359°
2026-05-04 02:44 35.04434 -89.98503 329 ft 30 kts 359°
2026-05-04 02:44 35.04663 -89.98509 329 ft 35 kts 359°
2026-05-04 02:44 35.04804 -89.98518 330 ft 9 kts 342°
2026-05-04 02:45 35.04823 -89.98537 329 ft 0 kts 306°
2026-05-04 02:46 35.04827 -89.98556 329 ft 4 kts 271°
2026-05-04 02:46 35.04824 -89.98605 330 ft 7 kts 267°
2026-05-04 02:46 35.04824 -89.98676 332 ft 7 kts 269°
2026-05-04 02:46 35.04792 -89.98737 332 ft 11 kts 208°
2026-05-04 02:47 35.04644 -89.98737 329 ft 53 kts 179°
2026-05-04 02:47 35.03961 -89.98722 329 ft 141 kts 179°
2026-05-04 02:47 35.02838 -89.98709 622 ft 177 kts 179°
2026-05-04 02:47 35.01518 -89.98694 1114 ft 192 kts 178°
2026-05-04 02:48 35.00168 -89.98657 1663 ft 203 kts 179°
2026-05-04 02:48 34.98763 -89.98879 2345 ft 207 kts 194°
2026-05-04 02:48 34.97372 -89.99472 2873 ft 218 kts 201°
2026-05-04 02:48 34.95922 -90.00197 3401 ft 231 kts 204°
2026-05-04 02:49 34.94595 -90.01375 3935 ft 247 kts 236°
2026-05-04 02:49 34.94053 -90.03364 4485 ft 253 kts 267°
2026-05-04 02:49 34.93997 -90.05505 5027 ft 253 kts 272°
2026-05-04 02:49 34.94026 -90.07654 5557 ft 253 kts 273°
2026-05-04 02:50 34.94069 -90.09801 6096 ft 254 kts 273°
2026-05-04 02:50 34.94069 -90.11970 6645 ft 257 kts 270°
2026-05-04 02:50 34.93972 -90.14146 7154 ft 259 kts 268°
2026-05-04 02:50 34.93830 -90.16343 7675 ft 261 kts 268°
2026-05-04 02:51 34.93671 -90.18557 8197 ft 264 kts 267°
2026-05-04 02:51 34.93505 -90.20800 8736 ft 267 kts 268°
2026-05-04 02:51 34.93343 -90.23066 9280 ft 270 kts 268°
2026-05-04 02:51 34.93198 -90.25355 9834 ft 272 kts 269°
2026-05-04 02:52 34.93066 -90.27667 10364 ft 275 kts 269°
2026-05-04 02:52 34.92936 -90.30031 10873 ft 286 kts 269°
2026-05-04 02:52 34.92803 -90.32509 11393 ft 299 kts 269°
2026-05-04 02:52 34.92664 -90.35091 11921 ft 312 kts 269°
2026-05-04 02:53 34.92516 -90.37776 12459 ft 323 kts 269°
2026-05-04 02:53 34.92360 -90.40548 13003 ft 333 kts 269°
2026-05-04 02:53 34.92197 -90.43395 13553 ft 340 kts 269°
2026-05-04 02:53 34.92028 -90.46281 14108 ft 343 kts 269°
2026-05-04 02:54 34.91856 -90.49191 14604 ft 346 kts 269°
2026-05-04 02:54 34.91682 -90.52126 15111 ft 348 kts 269°
2026-05-04 02:54 34.91509 -90.55040 15617 ft 351 kts 269°
2026-05-04 02:54 34.91332 -90.58051 16142 ft 353 kts 269°
2026-05-04 02:55 34.90979 -90.64032 17209 ft 359 kts 269°
2026-05-04 02:55 34.90796 -90.67077 17760 ft 362 kts 269°
2026-05-04 02:55 34.90611 -90.70147 18322 ft 365 kts 268°
2026-05-04 02:56 34.90389 -90.73245 18842 ft 369 kts 264°
2026-05-04 02:56 34.89929 -90.76336 19338 ft 372 kts 262°
2026-05-04 02:56 34.89451 -90.79447 19831 ft 375 kts 262°
2026-05-04 02:56 34.88974 -90.82575 20348 ft 377 kts 262°
2026-05-04 02:57 34.88497 -90.85731 20868 ft 380 kts 262°
2026-05-04 02:57 34.88018 -90.88904 21399 ft 382 kts 262°
2026-05-04 02:57 34.87534 -90.92088 21935 ft 384 kts 262°
2026-05-04 02:57 34.87042 -90.95299 22488 ft 386 kts 262°
2026-05-04 02:58 34.86546 -90.98512 23050 ft 387 kts 262°
2026-05-04 02:58 34.86044 -91.01742 23623 ft 388 kts 261°
2026-05-04 02:58 34.85541 -91.04974 24134 ft 389 kts 261°
2026-05-04 02:58 34.85037 -91.08214 24622 ft 390 kts 261°
2026-05-04 02:59 34.84348 -91.11409 25115 ft 393 kts 250°
2026-05-04 02:59 34.82934 -91.14269 25623 ft 399 kts 232°
2026-05-04 02:59 34.80826 -91.16482 26125 ft 406 kts 214°
2026-05-04 02:59 34.78278 -91.18001 26656 ft 408 kts 207°
2026-05-04 03:00 34.75693 -91.19421 27186 ft 408 kts 207°
2026-05-04 03:00 34.73109 -91.20834 27732 ft 407 kts 207°
2026-05-04 03:00 34.70527 -91.22246 28276 ft 406 kts 207°
2026-05-04 03:00 34.67955 -91.23656 28845 ft 405 kts 207°
2026-05-04 03:01 34.65392 -91.25064 29428 ft 404 kts 207°
2026-05-04 03:01 34.62835 -91.26473 30019 ft 402 kts 207°
2026-05-04 03:01 34.60296 -91.27872 30562 ft 401 kts 207°
2026-05-04 03:01 34.57759 -91.29268 31081 ft 399 kts 207°
2026-05-04 03:02 34.55235 -91.30654 31600 ft 396 kts 207°
2026-05-04 03:02 34.52731 -91.32029 32085 ft 396 kts 208°
2026-05-04 03:02 34.50198 -91.33421 32225 ft 405 kts 208°
2026-05-04 03:02 34.47598 -91.34854 32256 ft 416 kts 208°
2026-05-04 03:03 34.44929 -91.36323 32246 ft 427 kts 207°
2026-05-04 03:03 34.39432 -91.39329 32245 ft 446 kts 207°
2026-05-04 03:04 34.33667 -91.42466 32246 ft 461 kts 207°
2026-05-04 03:04 34.27782 -91.45671 32247 ft 465 kts 207°
2026-05-04 03:05 34.21879 -91.48890 32244 ft 466 kts 207°
2026-05-04 03:05 34.15986 -91.52090 32244 ft 463 kts 207°
2026-05-04 03:06 34.10106 -91.55282 32238 ft 464 kts 207°
2026-05-04 03:06 34.04217 -91.58485 32231 ft 464 kts 207°
2026-05-04 03:07 33.98329 -91.61684 32223 ft 464 kts 207°
2026-05-04 03:07 33.92432 -91.64860 32217 ft 464 kts 207°
2026-05-04 03:08 33.86551 -91.68027 32246 ft 462 kts 208°
2026-05-04 03:08 33.80737 -91.71169 32250 ft 461 kts 208°
2026-05-04 03:09 33.74898 -91.74317 32257 ft 460 kts 208°
2026-05-04 03:09 33.69060 -91.77448 32254 ft 459 kts 207°
2026-05-04 03:10 33.63227 -91.80576 32256 ft 458 kts 208°
2026-05-04 03:10 33.57431 -91.83684 32264 ft 456 kts 208°
2026-05-04 03:11 33.51654 -91.86786 32257 ft 454 kts 208°
2026-05-04 03:11 33.45885 -91.89868 32243 ft 454 kts 208°
2026-05-04 03:12 33.40103 -91.92938 32222 ft 455 kts 208°
2026-05-04 03:12 33.34311 -91.96021 32214 ft 456 kts 208°
2026-05-04 03:13 33.28511 -91.99110 32211 ft 457 kts 208°
2026-05-04 03:13 33.22692 -92.02202 32215 ft 458 kts 207°
2026-05-04 03:14 33.16893 -92.05275 32221 ft 459 kts 207°
2026-05-04 03:14 33.11062 -92.08365 32231 ft 458 kts 208°
2026-05-04 03:15 33.05251 -92.11439 32256 ft 456 kts 208°
2026-05-04 03:15 32.99467 -92.14487 32262 ft 454 kts 208°
2026-05-04 03:16 32.93695 -92.17528 32259 ft 453 kts 208°
2026-05-04 03:16 32.87937 -92.20565 32255 ft 452 kts 208°
2026-05-04 03:17 32.82197 -92.23580 32262 ft 450 kts 209°
2026-05-04 03:17 32.76490 -92.26576 32269 ft 447 kts 209°
2026-05-04 03:18 32.70809 -92.29555 32273 ft 446 kts 208°
2026-05-04 03:18 32.65124 -92.32536 32237 ft 447 kts 208°
2026-05-04 03:19 32.59423 -92.35519 32202 ft 449 kts 208°
2026-05-04 03:19 32.53718 -92.38492 32250 ft 446 kts 209°
2026-05-04 03:20 32.48079 -92.41431 32263 ft 445 kts 209°
2026-05-04 03:20 32.42421 -92.44376 32261 ft 444 kts 209°
2026-05-04 03:21 32.36776 -92.47312 32262 ft 443 kts 209°
2026-05-04 03:21 32.31132 -92.50243 32234 ft 443 kts 210°
2026-05-04 03:22 32.25503 -92.53156 32257 ft 441 kts 210°
2026-05-04 03:22 32.19886 -92.56058 32262 ft 440 kts 210°
2026-05-04 03:23 32.14280 -92.58958 32268 ft 439 kts 210°
2026-05-04 03:23 32.08687 -92.61853 32261 ft 439 kts 210°
2026-05-04 03:24 32.03133 -92.64716 32220 ft 438 kts 210°
2026-05-04 03:24 31.97718 -92.67859 32261 ft 427 kts 221°
2026-05-04 03:25 31.93532 -92.72636 32242 ft 418 kts 232°
2026-05-04 03:25 31.91583 -92.75185 32025 ft 420 kts 232°
2026-05-04 03:25 31.89616 -92.77748 31772 ft 422 kts 232°
2026-05-04 03:25 31.87646 -92.80303 31530 ft 422 kts 232°
2026-05-04 03:26 31.85668 -92.82863 31288 ft 423 kts 232°
2026-05-04 03:26 31.83687 -92.85425 31047 ft 424 kts 232°
2026-05-04 03:26 31.81699 -92.87995 30808 ft 425 kts 232°
2026-05-04 03:26 31.79711 -92.90566 30576 ft 425 kts 232°
2026-05-04 03:27 31.77725 -92.93139 30334 ft 426 kts 232°
2026-05-04 03:27 31.75730 -92.95724 30018 ft 426 kts 232°
2026-05-04 03:27 31.73747 -92.98289 29752 ft 424 kts 232°
2026-05-04 03:27 31.71761 -93.00851 29533 ft 424 kts 232°
2026-05-04 03:28 31.69773 -93.03412 29312 ft 425 kts 232°
2026-05-04 03:28 31.67780 -93.05976 29091 ft 426 kts 232°
2026-05-04 03:28 31.65774 -93.08560 28872 ft 431 kts 232°
2026-05-04 03:28 31.63752 -93.11167 28633 ft 433 kts 232°
2026-05-04 03:29 31.61718 -93.13785 28420 ft 435 kts 232°
2026-05-04 03:29 31.59674 -93.16412 28214 ft 437 kts 232°
2026-05-04 03:29 31.57623 -93.19050 27999 ft 438 kts 232°
2026-05-04 03:29 31.55568 -93.21691 27785 ft 439 kts 232°
2026-05-04 03:30 31.53503 -93.24340 27579 ft 441 kts 232°
2026-05-04 03:30 31.51458 -93.26961 27376 ft 442 kts 232°
2026-05-04 03:30 31.49381 -93.29625 27170 ft 444 kts 232°
2026-05-04 03:30 31.47293 -93.32298 26934 ft 445 kts 232°
2026-05-04 03:31 31.45209 -93.34962 26732 ft 443 kts 232°
2026-05-04 03:31 31.43129 -93.37619 26535 ft 443 kts 232°
2026-05-04 03:31 31.41044 -93.40278 26333 ft 444 kts 232°
2026-05-04 03:31 31.38953 -93.42946 26140 ft 445 kts 232°
2026-05-04 03:32 31.36860 -93.45616 25944 ft 446 kts 232°
2026-05-04 03:32 31.34759 -93.48297 25758 ft 447 kts 232°
2026-05-04 03:32 31.32649 -93.50990 25556 ft 449 kts 231°
2026-05-04 03:32 31.30538 -93.53683 25366 ft 450 kts 231°
2026-05-04 03:33 31.28419 -93.56381 25180 ft 451 kts 231°
2026-05-04 03:33 31.26293 -93.59081 24991 ft 452 kts 231°
2026-05-04 03:33 31.24160 -93.61786 24805 ft 454 kts 231°
2026-05-04 03:33 31.22713 -93.63617 24679 ft 454 kts 231°
2026-05-04 03:34 31.20567 -93.66334 24493 ft 456 kts 231°
2026-05-04 03:34 31.18444 -93.69024 24283 ft 456 kts 231°
2026-05-04 03:34 31.16304 -93.71738 24229 ft 453 kts 231°
2026-05-04 03:34 31.14141 -93.74480 24247 ft 452 kts 231°
2026-05-04 03:35 31.12009 -93.77183 24246 ft 452 kts 231°
2026-05-04 03:35 31.09879 -93.79877 24246 ft 452 kts 231°
2026-05-04 03:35 31.07771 -93.82541 24242 ft 454 kts 232°
2026-05-04 03:35 31.05619 -93.85257 24249 ft 457 kts 231°
2026-05-04 03:36 31.03459 -93.87980 24252 ft 458 kts 231°
2026-05-04 03:36 31.01295 -93.90706 24246 ft 458 kts 231°
2026-05-04 03:36 30.99128 -93.93435 24248 ft 459 kts 231°
2026-05-04 03:36 30.96962 -93.96163 24256 ft 459 kts 231°
2026-05-04 03:37 30.94795 -93.98891 24246 ft 458 kts 231°
2026-05-04 03:37 30.92627 -94.01617 24263 ft 459 kts 231°
2026-05-04 03:37 30.90453 -94.04347 24264 ft 459 kts 231°
2026-05-04 03:37 30.88288 -94.07065 24248 ft 456 kts 232°
2026-05-04 03:38 30.86141 -94.09750 24267 ft 451 kts 232°
2026-05-04 03:38 30.84019 -94.12400 23934 ft 443 kts 232°
2026-05-04 03:38 30.81926 -94.15018 22998 ft 438 kts 232°
2026-05-04 03:38 30.79867 -94.17597 22522 ft 434 kts 232°
2026-05-04 03:39 30.77810 -94.20175 22021 ft 436 kts 232°
2026-05-04 03:39 30.75740 -94.22773 21535 ft 440 kts 232°
2026-05-04 03:39 30.73651 -94.25394 21054 ft 442 kts 232°
2026-05-04 03:39 30.71558 -94.28011 20584 ft 442 kts 231°
2026-05-04 03:40 30.69457 -94.30627 20118 ft 442 kts 231°
2026-05-04 03:40 30.67363 -94.33235 19656 ft 441 kts 231°
2026-05-04 03:40 30.65273 -94.35840 19204 ft 441 kts 230°
2026-05-04 03:40 30.63189 -94.38443 18759 ft 437 kts 230°
2026-05-04 03:41 30.61126 -94.41022 18288 ft 436 kts 230°
2026-05-04 03:41 30.59057 -94.43606 17783 ft 437 kts 230°
2026-05-04 03:41 30.56985 -94.46186 17287 ft 436 kts 230°
2026-05-04 03:41 30.54918 -94.48755 17009 ft 435 kts 230°
2026-05-04 03:42 30.52873 -94.51338 17013 ft 435 kts 231°
2026-05-04 03:42 30.50920 -94.54013 17016 ft 434 kts 233°
2026-05-04 03:42 30.49071 -94.56719 16933 ft 432 kts 235°
2026-05-04 03:42 30.47250 -94.59479 16493 ft 427 kts 236°
2026-05-04 03:43 30.45471 -94.62195 16016 ft 421 kts 236°
2026-05-04 03:43 30.43692 -94.64883 15549 ft 420 kts 235°
2026-05-04 03:43 30.41895 -94.67560 15085 ft 421 kts 234°
2026-05-04 03:43 30.40105 -94.70188 14635 ft 409 kts 234°
2026-05-04 03:44 30.38314 -94.72694 14191 ft 398 kts 232°
2026-05-04 03:44 30.36531 -94.75062 13703 ft 382 kts 231°
2026-05-04 03:44 30.34790 -94.77310 13086 ft 369 kts 230°
2026-05-04 03:44 30.33098 -94.79475 12473 ft 357 kts 230°
2026-05-04 03:45 30.31459 -94.81587 11874 ft 348 kts 230°
2026-05-04 03:45 30.29880 -94.83643 11280 ft 335 kts 231°
2026-05-04 03:45 30.28365 -94.85634 10702 ft 325 kts 231°
2026-05-04 03:45 30.26919 -94.87593 10172 ft 315 kts 232°
2026-05-04 03:46 30.25545 -94.89505 9709 ft 304 kts 232°
2026-05-04 03:46 30.24218 -94.91369 9236 ft 296 kts 232°
2026-05-04 03:46 30.22924 -94.93187 8775 ft 290 kts 232°
2026-05-04 03:46 30.21654 -94.94965 8320 ft 284 kts 232°
2026-05-04 03:47 30.20408 -94.96696 8037 ft 277 kts 231°
2026-05-04 03:47 30.19175 -94.98407 8010 ft 278 kts 231°
2026-05-04 03:47 30.17933 -95.00129 8021 ft 279 kts 231°
2026-05-04 03:47 30.16690 -95.01851 8011 ft 279 kts 231°
2026-05-04 03:48 30.15445 -95.03570 8016 ft 279 kts 231°
2026-05-04 03:48 30.14201 -95.05286 8018 ft 278 kts 231°
2026-05-04 03:48 30.12959 -95.07001 8016 ft 278 kts 231°
2026-05-04 03:48 30.11687 -95.08718 8023 ft 284 kts 230°
2026-05-04 03:49 30.10361 -95.10422 8018 ft 286 kts 229°
2026-05-04 03:49 30.09014 -95.12115 8024 ft 286 kts 228°
2026-05-04 03:49 30.07665 -95.13806 8022 ft 287 kts 228°
2026-05-04 03:49 30.06314 -95.15504 7900 ft 289 kts 229°
2026-05-04 03:50 30.04966 -95.17206 7599 ft 286 kts 229°
2026-05-04 03:50 30.03631 -95.18903 7307 ft 286 kts 229°
2026-05-04 03:50 30.02299 -95.20605 7020 ft 285 kts 229°
2026-05-04 03:50 30.00987 -95.22278 6725 ft 285 kts 228°
2026-05-04 03:51 29.99655 -95.23975 6427 ft 285 kts 228°
2026-05-04 03:51 29.98329 -95.25661 6128 ft 283 kts 228°
2026-05-04 03:51 29.97010 -95.27339 5987 ft 282 kts 228°
2026-05-04 03:51 29.95685 -95.29019 5592 ft 282 kts 228°
2026-05-04 03:52 29.94373 -95.30686 5201 ft 279 kts 228°
2026-05-04 03:52 29.93075 -95.32339 4785 ft 276 kts 227°
2026-05-04 03:52 29.91805 -95.33958 4369 ft 269 kts 227°
2026-05-04 03:52 29.90582 -95.35556 3972 ft 263 kts 232°
2026-05-04 03:53 29.89696 -95.37368 3571 ft 258 kts 249°
2026-05-04 03:53 29.89266 -95.39343 3176 ft 252 kts 263°
2026-05-04 03:53 29.89238 -95.41310 3018 ft 236 kts 270°
2026-05-04 03:53 29.89248 -95.43122 3022 ft 220 kts 270°
2026-05-04 03:54 29.89250 -95.44849 3029 ft 211 kts 270°
2026-05-04 03:54 29.89253 -95.46526 3041 ft 207 kts 270°
2026-05-04 03:54 29.89256 -95.48123 3023 ft 194 kts 270°
2026-05-04 03:54 29.89259 -95.49650 3022 ft 188 kts 270°
2026-05-04 03:55 29.89261 -95.51149 3030 ft 186 kts 270°
2026-05-04 03:55 29.89265 -95.52637 3035 ft 185 kts 270°
2026-05-04 03:55 29.89269 -95.54116 3040 ft 185 kts 269°
2026-05-04 03:55 29.89273 -95.55595 3033 ft 185 kts 270°
2026-05-04 03:56 29.89279 -95.57074 3033 ft 185 kts 270°
2026-05-04 03:56 29.89354 -95.58551 3019 ft 186 kts 283°
2026-05-04 03:56 29.90060 -95.59680 3017 ft 169 kts 329°
2026-05-04 03:56 29.91154 -95.59981 3041 ft 159 kts 358°
2026-05-04 03:57 29.92245 -95.60013 3039 ft 156 kts
2026-05-04 03:57 29.93320 -95.60021 3038 ft 154 kts
2026-05-04 03:57 29.94390 -95.60029 3031 ft 153 kts
2026-05-04 03:57 29.95456 -95.60039 3039 ft 154 kts
2026-05-04 03:58 29.97416 -95.59436 3043 ft 151 kts 51°
2026-05-04 03:58 29.98002 -95.58441 3044 ft 149 kts 60°
2026-05-04 03:58 29.98531 -95.57414 3045 ft 149 kts 62°
2026-05-04 03:59 29.99054 -95.56379 2916 ft 150 kts 62°
2026-05-04 03:59 29.99306 -95.55261 2654 ft 147 kts 91°
2026-05-04 03:59 29.99306 -95.54083 2408 ft 146 kts 91°
2026-05-04 03:59 29.99310 -95.52909 2158 ft 146 kts 92°
2026-05-04 04:00 29.99313 -95.51741 2047 ft 146 kts 92°
2026-05-04 04:00 29.99316 -95.50569 2046 ft 147 kts 92°
2026-05-04 04:00 29.99319 -95.49396 2045 ft 146 kts 92°
2026-05-04 04:00 29.99322 -95.48223 2035 ft 147 kts 92°
2026-05-04 04:01 29.99324 -95.47041 1982 ft 147 kts 92°
2026-05-04 04:01 29.99326 -95.45869 1828 ft 146 kts 92°
2026-05-04 04:01 29.99328 -95.44698 1659 ft 146 kts 92°
2026-05-04 04:01 29.99330 -95.43531 1461 ft 145 kts 92°
2026-05-04 04:02 29.99332 -95.42369 1282 ft 145 kts 91°
2026-05-04 04:02 29.99334 -95.41209 1092 ft 145 kts 91°
2026-05-04 04:02 29.99347 -95.40045 907 ft 145 kts 91°
2026-05-04 04:02 29.99350 -95.38876 703 ft 146 kts 92°
2026-05-04 04:03 29.99342 -95.37710 518 ft 146 kts 93°
2026-05-04 04:03 29.99335 -95.36541 337 ft 145 kts 92°
2026-05-04 04:03 29.99343 -95.35403 160 ft 141 kts 92°
2026-05-04 04:03 29.99344 -95.34361 95 ft 110 kts 89°
2026-05-04 04:04 29.99345 -95.33827 98 ft 49 kts 90°
2026-05-04 04:04 29.99342 -95.33423 101 ft 43 kts 94°
2026-05-04 04:04 29.99267 -95.33192 102 ft 24 kts 120°
2026-05-04 04:04 29.99255 -95.33171 102 ft 0 kts 125°
2026-05-04 04:05 29.99254 -95.33168 102 ft 0 kts 125°
2026-05-04 04:05 29.99248 -95.33158 101 ft 3 kts 124°
2026-05-04 04:05 29.99230 -95.33123 100 ft 7 kts 116°
2026-05-04 04:06 29.99198 -95.33058 101 ft 12 kts 127°
2026-05-04 04:06 29.99113 -95.33027 101 ft 16 kts 182°
2026-05-04 04:06 29.98989 -95.33022 102 ft 18 kts 180°
2026-05-04 04:06 29.98926 -95.33097 101 ft 16 kts 273°
2026-05-04 04:07 29.98928 -95.33251 101 ft 22 kts 270°
2026-05-04 04:07 29.98928 -95.33435 100 ft 17 kts 269°
2026-05-04 04:07 29.98928 -95.33508 100 ft 2 kts 270°
2026-05-04 04:07 29.98915 -95.33540 99 ft 6 kts 214°
2026-05-04 04:08 29.98855 -95.33540 100 ft 8 kts 179°
2026-05-04 04:08 29.98830 -95.33539 100 ft 0 kts 177°